EW9539 Weather Reports


time (UTC)temp
C
wind
direction
speed
KPH
gust
KPH
rain 1hr
cm
rain 24hr
cm
rain mn
cm
humidity
%
barometer
mb
20260508023050 9 19 0.0 1.6 0.00 0.00 0.00 57 1013.2
20260508021547 10 19 0.0 1.6 0.00 0.00 0.00 55 1012.9
20260508020044 10 19 0.0 3.2 0.00 0.00 0.00 52 1012.9
20260508014552 11 33 0.0 4.8 0.00 0.00 0.00 51 1012.6
20260508013046 11 31 0.0 4.8 0.00 0.00 0.00 49 1012.4
20260508011546 11 44 0.0 3.2 0.00 0.00 0.00 48 1012.1
20260508010043 12 40 0.0 9.7 0.00 0.00 0.00 45 1011.9
20260508004543 12 37 0.0 3.2 0.00 0.00 0.00 44 1011.8
20260508003056 13 355 0.0 9.7 0.00 0.00 0.00 44 1011.5
20260508001543 13 46 0.0 8.0 0.00 0.00 0.00 42 1011.1
20260508000043 13 14 1.6 6.4 0.00 0.00 0.00 41 1011.0
20260507234540 14 16 0.0 8.0 0.00 0.00 0.00 41 1010.8
20260507233039 14 38 1.6 9.7 0.00 0.00 0.00 39 1010.6
20260507231540 15 57 1.6 8.0 0.00 0.00 0.00 39 1010.4
20260507230041 15 46 1.6 8.0 0.00 0.00 0.00 41 1010.2
20260507224550 16 19 3.2 9.7 0.00 0.00 0.00 38 1010.3
20260507223036 16 39 1.6 8.0 0.00 0.00 0.00 41 1010.2
20260507221535 16 56 0.0 14.5 0.00 0.00 0.00 39 1010.2
20260507220035 16 42 0.0 6.4 0.00 0.00 0.00 40 1009.9
20260507214534 15 26 3.2 9.7 0.00 0.00 0.00 40 1009.8
20260507213034 16 57 1.6 8.0 0.00 0.00 0.00 39 1009.8
20260507211539 16 62 1.6 9.7 0.00 0.00 0.00 40 1009.7
20260507210038 17 345 1.6 9.7 0.00 0.00 0.00 42 1009.5
20260507204531 17 342 1.6 6.4 0.00 0.00 0.00 44 1009.6
20260507203029 16 82 3.2 6.4 0.00 0.00 0.00 39 1009.5
20260507201528 17 65 1.6 9.7 0.00 0.00 0.00 44 1009.7
20260507200024 16 346 1.6 6.4 0.00 0.00 0.00 44 1009.8
20260507194524 15 36 1.6 6.4 0.00 0.00 0.00 44 1010.2
20260507193021 15 22 3.2 8.0 0.00 0.00 0.00 48 1010.4
20260507191521 15 107 0.0 4.8 0.00 0.00 0.00 46 1010.4
20260507190021 16 24 3.2 9.7 0.00 0.00 0.00 46 1010.3
20260507184521 15 46 1.6 11.3 0.00 0.00 0.00 49 1010.5
20260507183021 15 5 1.6 12.9 0.00 0.00 0.00 51 1010.6
20260507181517 16 15 1.6 6.4 0.00 0.00 0.00 45 1010.5
20260507180015 17 5 1.6 6.4 0.00 0.00 0.00 51 1010.6
20260507174514 16 46 1.6 6.4 0.00 0.00 0.00 48 1010.7
20260507173011 14 35 1.6 6.4 0.00 0.00 0.00 46 1011.0
20260507171510 15 36 1.6 9.7 0.00 0.00 0.00 46 1011.1
20260507170007 16 64 1.6 6.4 0.00 0.00 0.00 43 1011.3
20260507164505 17 30 1.6 8.0 0.00 0.05 0.00 46 1011.5
20260507163100 16 360 1.6 6.4 0.00 0.05 0.00 47 1011.6
20260507163001 16 9 1.6 6.4 0.00 0.05 0.00 46 1011.6
20260507161600 16 40 1.6 6.4 0.00 0.05 0.00 53 1011.7
20260507160100 15 42 1.6 9.7 0.00 0.05 0.00 49 1011.9
20260507154553 15 59 1.6 4.8 0.00 0.10 0.00 54 1012.0
20260507153058 13 32 0.0 6.4 0.00 0.10 0.00 50 1012.1
20260507151549 15 32 0.0 4.8 0.00 0.10 0.00 51 1012.2
20260507150046 14 46 0.0 6.4 0.00 0.10 0.00 52 1012.5
20260507144543 14 70 1.6 6.4 0.00 0.10 0.00 52 1012.5
20260507143039 13 38 0.0 4.8 0.00 0.10 0.00 59 1012.7
20260507141537 13 44 0.0 4.8 0.00 0.10 0.00 59 1013.0
20260507140035 12 140 1.6 3.2 0.00 0.10 0.00 53 1013.2
20260507134529 12 253 0.0 6.4 0.00 0.10 0.00 62 1013.5
20260507133025 12 38 0.0 6.4 0.00 0.10 0.00 62 1013.5
20260507131530 12 165 1.6 4.8 0.00 0.10 0.00 64 1013.5
20260507130018 11 211 1.6 6.4 0.00 0.10 0.00 67 1013.6
20260507124517 10 235 1.6 4.8 0.00 0.20 0.00 75 1013.6
20260507123012 9 132 0.0 3.2 0.00 0.20 0.00 84 1013.7
20260507121506 8 132 0.0 3.2 0.00 0.20 0.00 88 1013.6
20260507120003 7 132 0.0 0.0 0.00 0.20 0.00 89 1013.7
20260507114502 7 132 0.0 0.0 0.00 0.30 0.00 89 1013.6
20260507113104 7 132 0.0 0.0 0.00 0.30 0.00 90 1013.5
20260507111557 6 132 0.0 0.0 0.00 0.30 0.00 90 1013.3
20260507110058 6 132 0.0 0.0 0.00 0.30 0.00 89 1013.1
20260507104553 6 132 0.0 0.0 0.00 0.66 0.00 89 1012.9
20260507103049 6 132 0.0 0.0 0.00 0.66 0.00 89 1012.8
20260507101601 6 132 0.0 0.0 0.00 0.66 0.00 88 1012.6
20260507100045 6 132 0.0 0.0 0.00 0.66 0.00 87 1012.7
20260507094554 6 132 0.0 0.0 0.00 1.40 0.00 86 1012.5
20260507093040 7 132 0.0 0.0 0.00 1.40 0.00 86 1012.5
20260507091552 7 132 0.0 0.0 0.00 1.40 0.00 85 1012.3
20260507090040 8 132 0.0 1.6 0.00 1.40 0.00 84 1012.3
20260507084532 8 132 0.0 3.2 0.00 1.63 0.00 83 1012.3
20260507083032 9 132 0.0 3.2 0.00 1.63 0.00 83 1012.3
20260507081542 9 132 0.0 0.0 0.00 1.63 0.00 84 1012.4
20260507080030 9 132 0.0 0.0 0.00 1.63 0.00 83 1012.4
20260507074531 9 132 0.0 0.0 0.00 1.63 0.00 83 1012.2
20260507073028 9 132 0.0 1.6 0.00 1.63 0.00 83 1012.1
20260507071526 9 132 0.0 0.0 0.00 1.63 0.00 82 1012.1
20260507070026 10 132 0.0 1.6 0.00 1.63 0.00 84 1012.1
20260507064526 10 132 0.0 0.0 0.00 1.63 0.00 84 1012.0
20260507063022 10 132 0.0 0.0 0.00 1.63 0.00 84 1012.1
20260507061530 10 132 0.0 3.2 0.00 1.63 0.00 86 1012.0
20260507060028 10 132 0.0 3.2 0.00 1.63 0.00 88 1012.1
20260507054522 10 146 0.0 4.8 0.00 1.63 0.00 89 1012.2
20260507053017 10 96 0.0 3.2 0.00 1.63 0.00 90 1012.3
20260507051517 10 23 0.0 1.6 0.00 1.63 0.00 90 1012.5
20260507050027 11 55 0.0 0.0 0.00 1.63 0.00 90 1012.5
20260507044528 11 55 0.0 0.0 0.00 1.63 0.00 90 1012.2
20260507043011 11 55 0.0 3.2 0.00 1.63 0.00 90 1012.4
20260507041509 11 175 0.0 0.0 0.00 1.63 0.00 89 1012.3
20260507040010 11 175 0.0 0.0 0.00 1.63 0.00 89 1012.2
20260507034507 11 136 0.0 3.2 0.00 1.63 1.63 89 1012.0
20260507033009 11 136 0.0 0.0 0.00 1.63 1.63 89 1012.2
20260507031503 11 136 0.0 0.0 0.00 1.63 1.63 89 1012.3
20260507030001 11 136 0.0 1.6 0.00 1.63 1.63 89 1012.6
20260507024621 11 136 0.0 0.0 0.00 1.63 1.63 89 1012.1